| time (UTC) | temp F | wind direction | speed MPH | gust MPH | rain 1hr in | rain 24hr in | rain mn in | humidity % | barometer mb |
| 20260904160100 | 62 | 314 | 1.0 | 2.0 | 0.00 | 0.00 | 0.00 | 94 | 1020.8 |
| 20260904154600 | 62 | 283 | 0.0 | 2.0 | 0.00 | 0.00 | 0.00 | 95 | 1020.8 |
| 20260904153058 | 62 | 302 | 1.0 | 3.0 | 0.00 | 0.00 | 0.00 | 94 | 1020.8 |
| 20260904151557 | 63 | 295 | 1.0 | 3.0 | 0.00 | 0.00 | 0.00 | 94 | 1020.8 |
| 20260904150053 | 62 | 283 | 1.0 | 3.0 | 0.00 | 0.00 | 0.00 | 94 | 1020.8 |
| 20260904144551 | 62 | 306 | 1.0 | 2.0 | 0.00 | 0.00 | 0.00 | 94 | 1020.8 |
| 20260904143047 | 63 | 314 | 1.0 | 3.0 | 0.00 | 0.00 | 0.00 | 94 | 1020.8 |
| 20260904141546 | 64 | 223 | 1.0 | 3.0 | 0.00 | 0.00 | 0.00 | 94 | 1020.8 |
| 20260904140059 | 63 | 283 | 0.0 | 2.0 | 0.00 | 0.00 | 0.00 | 93 | 1020.8 |
| 20260904134544 | 64 | 290 | 1.0 | 2.0 | 0.00 | 0.00 | 0.00 | 93 | 1020.8 |
| 20260904133046 | 64 | 321 | 1.0 | 3.0 | 0.00 | 0.00 | 0.00 | 93 | 1020.6 |
| 20260904131545 | 65 | 306 | 1.0 | 2.0 | 0.00 | 0.00 | 0.00 | 93 | 1020.6 |
| 20260904130050 | 65 | 269 | 0.0 | 2.0 | 0.00 | 0.00 | 0.00 | 93 | 1020.7 |
| 20260904124540 | 65 | 277 | 2.0 | 3.0 | 0.00 | 0.00 | 0.00 | 92 | 1020.7 |
| 20260904123038 | 66 | 321 | 1.0 | 2.0 | 0.00 | 0.00 | 0.00 | 92 | 1020.8 |
| 20260904121536 | 66 | 314 | 1.0 | 2.0 | 0.00 | 0.00 | 0.00 | 92 | 1020.8 |
| 20260904120035 | 67 | 240 | 0.0 | 3.0 | 0.00 | 0.00 | 0.00 | 91 | 1020.9 |
| 20260904114535 | 67 | 231 | 0.0 | 3.0 | 0.00 | 0.00 | 0.00 | 91 | 1020.9 |
| 20260904113036 | 68 | 197 | 2.0 | 5.0 | 0.00 | 0.00 | 0.00 | 90 | 1020.9 |
| 20260904111539 | 68 | 169 | 3.0 | 5.0 | 0.00 | 0.00 | 0.00 | 90 | 1020.7 |
| 20260904110031 | 68 | 159 | 2.0 | 5.0 | 0.00 | 0.00 | 0.00 | 90 | 1020.5 |
| 20260904104535 | 68 | 163 | 2.0 | 6.0 | 0.00 | 0.00 | 0.00 | 89 | 1020.3 |
| 20260904103030 | 68 | 193 | 1.0 | 3.0 | 0.00 | 0.00 | 0.00 | 87 | 1020.2 |
| 20260904101530 | 69 | 124 | 1.0 | 4.0 | 0.00 | 0.00 | 0.00 | 86 | 1020.1 |
| 20260904100028 | 69 | 169 | 1.0 | 2.0 | 0.00 | 0.00 | 0.00 | 85 | 1020.0 |
| 20260904094527 | 69 | 269 | 0.0 | 2.0 | 0.00 | 0.00 | 0.00 | 84 | 1019.8 |
| 20260904093027 | 69 | 344 | 0.0 | 2.0 | 0.00 | 0.00 | 0.00 | 84 | 1019.8 |
| 20260904091524 | 69 | 240 | 0.0 | 2.0 | 0.00 | 0.00 | 0.00 | 83 | 1019.6 |
| 20260904090033 | 70 | 302 | 0.0 | 2.0 | 0.00 | 0.00 | 0.00 | 82 | 1019.5 |
| 20260904084524 | 71 | 286 | 0.0 | 3.0 | 0.00 | 0.00 | 0.00 | 80 | 1019.5 |
| 20260904083022 | 71 | 331 | 1.0 | 4.0 | 0.00 | 0.00 | 0.00 | 79 | 1019.3 |
| 20260904081521 | 72 | 336 | 1.0 | 4.0 | 0.00 | 0.00 | 0.00 | 78 | 1019.2 |
| 20260904080020 | 72 | 342 | 2.0 | 5.0 | 0.00 | 0.00 | 0.00 | 77 | 1019.1 |
| 20260904074528 | 73 | 347 | 2.0 | 5.0 | 0.00 | 0.00 | 0.00 | 76 | 1018.8 |
| 20260904073018 | 74 | 279 | 1.0 | 3.0 | 0.00 | 0.00 | 0.00 | 74 | 1018.6 |
| 20260904071516 | 75 | 324 | 1.0 | 4.0 | 0.00 | 0.00 | 0.00 | 72 | 1018.5 |
| 20260904070016 | 76 | 1 | 2.0 | 6.0 | 0.00 | 0.00 | 0.00 | 69 | 1018.3 |
| 20260904064613 | 77 | 321 | 2.0 | 5.0 | 0.00 | 0.00 | 0.00 | 66 | 1018.3 |
| 20260904063011 | 78 | 329 | 1.0 | 5.0 | 0.00 | 0.00 | 0.00 | 63 | 1018.1 |
| 20260904061525 | 79 | 145 | 1.0 | 5.0 | 0.00 | 0.00 | 0.00 | 59 | 1017.9 |
| 20260904060008 | 80 | 28 | 2.0 | 7.0 | 0.00 | 0.00 | 0.00 | 54 | 1017.7 |
| 20260904054513 | 81 | 316 | 3.0 | 9.0 | 0.00 | 0.00 | 0.00 | 49 | 1017.5 |
| 20260904053004 | 83 | 353 | 3.0 | 7.0 | 0.00 | 0.00 | 0.00 | 50 | 1017.3 |
| 20260904051502 | 84 | 34 | 2.0 | 13.0 | 0.00 | 0.00 | 0.00 | 44 | 1017.3 |
| 20260904050003 | 87 | 1 | 2.0 | 7.0 | 0.00 | 0.00 | 0.00 | 39 | 1017.1 |
| 20260904044601 | 89 | 1 | 4.0 | 18.0 | 0.00 | 0.00 | 0.00 | 28 | 1017.0 |
| 20260904043050 | 89 | 1 | 4.0 | 12.0 | 0.00 | 0.00 | 0.00 | 28 | 1017.1 |
| 20260904041547 | 89 | 315 | 6.0 | 12.0 | 0.00 | 0.00 | 0.00 | 29 | 1017.3 |
| 20260904040143 | 88 | 291 | 7.0 | 14.0 | 0.00 | 0.00 | 0.00 | 29 | 1017.4 |
| 20260904034539 | 88 | 297 | 3.0 | 16.0 | 0.00 | 0.00 | 0.00 | 30 | 1017.6 |
| 20260904033035 | 88 | 295 | 8.0 | 15.0 | 0.00 | 0.00 | 0.00 | 30 | 1017.8 |
| 20260904031532 | 89 | 290 | 6.0 | 11.0 | 0.00 | 0.00 | 0.00 | 29 | 1018.0 |
| 20260904030028 | 88 | 285 | 8.0 | 18.0 | 0.00 | 0.00 | 0.00 | 29 | 1018.3 |
| 20260904024524 | 89 | 271 | 7.0 | 17.0 | 0.00 | 0.00 | 0.00 | 29 | 1018.5 |
| 20260904023022 | 89 | 288 | 3.0 | 8.0 | 0.00 | 0.00 | 0.00 | 31 | 1018.7 |
| 20260904021523 | 89 | 311 | 5.0 | 11.0 | 0.00 | 0.00 | 0.00 | 31 | 1019.0 |
| 20260904020018 | 88 | 269 | 4.0 | 13.0 | 0.00 | 0.00 | 0.00 | 31 | 1019.2 |
| 20260904014515 | 88 | 321 | 2.0 | 6.0 | 0.00 | 0.00 | 0.00 | 33 | 1019.4 |
| 20260904013015 | 87 | 360 | 3.0 | 7.0 | 0.00 | 0.00 | 0.00 | 35 | 1019.8 |
| 20260904011609 | 87 | 296 | 7.0 | 10.0 | 0.00 | 0.00 | 0.00 | 36 | 1020.0 |
| 20260904010009 | 86 | 348 | 2.0 | 11.0 | 0.00 | 0.00 | 0.00 | 35 | 1020.4 |
| 20260904004502 | 85 | 223 | 1.0 | 11.0 | 0.00 | 0.00 | 0.00 | 40 | 1020.6 |
| 20260904003100 | 84 | 207 | 5.0 | 12.0 | 0.00 | 0.00 | 0.00 | 39 | 1020.8 |
| 20260904001532 | 83 | 318 | 3.0 | 8.0 | 0.00 | 0.00 | 0.00 | 41 | 1020.9 |
| 20260904000032 | 82 | 291 | 4.0 | 8.0 | 0.00 | 0.00 | 0.00 | 44 | 1021.0 |
| 20260903234629 | 81 | 286 | 5.0 | 10.0 | 0.00 | 0.00 | 0.00 | 45 | 1021.1 |
| 20260903233020 | 80 | 281 | 5.0 | 11.0 | 0.00 | 0.00 | 0.00 | 45 | 1021.2 |
| 20260903231516 | 79 | 296 | 5.0 | 10.0 | 0.00 | 0.00 | 0.00 | 48 | 1021.2 |
| 20260903230012 | 77 | 293 | 2.0 | 5.0 | 0.00 | 0.00 | 0.00 | 57 | 1021.3 |
| 20260903224508 | 74 | 303 | 0.0 | 4.0 | 0.00 | 0.00 | 0.00 | 66 | 1021.4 |
| 20260903223008 | 71 | 143 | 2.0 | 6.0 | 0.00 | 0.00 | 0.00 | 71 | 1021.4 |
| 20260903221559 | 69 | 143 | 1.0 | 6.0 | 0.00 | 0.00 | 0.00 | 74 | 1021.3 |
| 20260903220054 | 67 | 314 | 0.0 | 5.0 | 0.00 | 0.00 | 0.00 | 80 | 1021.1 |
| 20260903214551 | 64 | 28 | 1.0 | 4.0 | 0.00 | 0.00 | 0.00 | 86 | 1021.0 |
| 20260903213044 | 61 | 162 | 1.0 | 4.0 | 0.00 | 0.00 | 0.00 | 90 | 1020.8 |
| 20260903211543 | 60 | 269 | 1.0 | 3.0 | 0.00 | 0.00 | 0.00 | 92 | 1020.7 |
| 20260903210051 | 59 | 178 | 1.0 | 4.0 | 0.00 | 0.00 | 0.00 | 93 | 1020.5 |
| 20260903204554 | 58 | 142 | 0.0 | 2.0 | 0.00 | 0.00 | 0.00 | 94 | 1020.3 |
| 20260903203038 | 57 | 223 | 1.0 | 3.0 | 0.00 | 0.00 | 0.00 | 93 | 1020.2 |
| 20260903201532 | 57 | 46 | 0.0 | 2.0 | 0.00 | 0.00 | 0.00 | 92 | 1019.9 |
| 20260903200028 | 57 | 167 | 2.0 | 4.0 | 0.00 | 0.00 | 0.00 | 93 | 1019.8 |
| 20260903194525 | 57 | 299 | 1.0 | 3.0 | 0.00 | 0.00 | 0.00 | 92 | 1019.6 |
| 20260903193023 | 59 | 283 | 0.0 | 2.0 | 0.00 | 0.00 | 0.00 | 92 | 1019.5 |
| 20260903191521 | 58 | 46 | 0.0 | 2.0 | 0.00 | 0.00 | 0.00 | 92 | 1019.3 |
| 20260903190017 | 59 | 295 | 0.0 | 2.0 | 0.00 | 0.00 | 0.00 | 91 | 1019.2 |
| 20260903184516 | 59 | 178 | 0.0 | 2.0 | 0.00 | 0.00 | 0.00 | 91 | 1019.0 |
| 20260903183011 | 59 | 300 | 1.0 | 2.0 | 0.00 | 0.00 | 0.00 | 91 | 1018.9 |
| 20260903180106 | 60 | 269 | 0.0 | 3.0 | 0.00 | 0.00 | 0.00 | 91 | 1018.8 |
| 20260903174513 | 60 | 188 | 2.0 | 4.0 | 0.00 | 0.00 | 0.00 | 91 | 1018.6 |
| 20260903173003 | 61 | 186 | 2.0 | 3.0 | 0.00 | 0.00 | 0.00 | 91 | 1018.6 |
| 20260903171501 | 60 | 178 | 0.0 | 3.0 | 0.00 | 0.00 | 0.00 | 90 | 1018.6 |
| 20260903170059 | 60 | 206 | 1.0 | 3.0 | 0.00 | 0.00 | 0.00 | 90 | 1018.6 |
| 20260903164557 | 60 | 295 | 0.0 | 3.0 | 0.00 | 0.00 | 0.00 | 89 | 1018.6 |
| 20260903163055 | 61 | 206 | 1.0 | 5.0 | 0.00 | 0.00 | 0.00 | 89 | 1018.5 |
| 20260903161554 | 61 | 174 | 2.0 | 5.0 | 0.00 | 0.00 | 0.00 | 90 | 1018.7 |